Location: Althorst
(53.6379°N, 10.7715°E)
Time: 19:19:25
(UTC+00:00)

Cosmos 1943 Rocket - Pass Details

Date: 10 December 2019
Orbit: 812 x 844 km, 71.0° (Epoch: 19 January)

Event Time Altitude Azimuth Distance (km) Brightness Sun altitude
Rises 17:54:11 0° 327° (NNW) 3,411 5.7 -24.8°
Reaches altitude 10° 17:56:38 10° 328° (NNW) 2,470 4.9 -25.1°
Maximum altitude 18:02:20 85° 56° (NE) 847 2.0 -26.0°
Enters shadow 18:03:06 68° 136° (SE) 902 2.1 -26.1°
